Погода Широкий Прилук

Поиск расширенной информации на нашем сайте:

Полезная информация:

Новости сайта



02.01.2020
Опубликован Долгосрочный прогноз погоды по городам России и ближнего зарубежья на январь 2020 года.
Карты: Прогноз на январь и февраль 2020 года, Сравнение прогнозируемой аномалии приземной температуры воздуха на январь 2020 года по разным моделям.




Погода Широкий Прилук - сегодня

Время (UTC), дата Ветер
(°,м/с) 
Видим.   Явления Облачность Т
(°С)
Тd
(°С)
f(%) Тe
(°С)
Pmin
(гПа)
dP
(гПа)
Po
(мм)
O2
(г/м3)
Тmin Tmax R s Состояние
почвы
00 30.11.20 100 (В) н/о    н/о 
-6.6 -8 90 -9  1043.8  -1  776  321           
03 30.11.20 100 (В) 10 км    10/10 540 м 
[Sc]
-5.4 -6.7 91 -8  1043.1  -0.6  776  320  -9.9    0.0  равномерный
сухой снег
100% 
06 30.11.20 090 (В) 10 км    10/10 480 м 
[Sc]
-3.9 -5.2 91 -5  1042.9  -0.2  775  318           
09 30.11.20 110 (В) н/о    н/о 
-2.9 -4.3 90 -5  1042.1  -0.8  775  316           
12 30.11.20 100 (В) 10 км    10/10 420 м 
[Sc]
-2.2 -3.6 90 -4  1041.2  -0.8  774  315           
15 30.11.20 100 (В) 10 км    10/10 450 м 
[Sc]
-1.5 -3.7 85 -2  1039.8  -1.3  773  314    -1.5       
18 30.11.20 130 (ЮВ) 20000 м    9/9 2000 м средняя 
[Ac cast]
-3.4 -5.2 87 -6  1038.3  -1.6  772  316           
21 30.11.20 150 (ЮВ) н/о    н/о 
-3.1 -5.5 83 -6  1037.6  -0.7  771  315           
00 01.12.20 150 (ЮВ) н/о    н/о 
-4.2 -6.8 82 -7  1037.2  -0.5  771  316           
03 01.12.20 130 (ЮВ) 20000 м    3/3 600 м 
[Cu hum]
-6.3 -8.8 82 -8  1036.7  -0.5  771  319  -6.4      равномерный
сухой снег
100% 
06 01.12.20 140 (ЮВ) 20000 м    3/3 2000 м средняя 
[Ac trans]
-6.6 -9.6 79 -8  1036.6  0.1  771  319  -7.1         
09 01.12.20 130 (ЮВ) н/о    н/о 
-5.5 -9.7 72 -7  1036.3  -0.3  770  318           
12 01.12.20 170 (Ю) 20000 м    8/3 600 м средняя, верхняя 
[Sc|Ac As|Ci fib]
-4.8 -9 72 -7  1035.5  -0.8  770  317           
15 01.12.20 190 (Ю) 20000 м    9/5 600 м средняя 
[Sc|Ac As]
-4.9 -8.7 75 -7  1035.3  -0.1  770  317    -4.6       
18 01.12.20 190 (Ю) 20000 м    10/8 630 м средняя 
[Sc|Ac As]
-5 -8.5 76 -6  1035.7  0.3  770  317           
21 01.12.20 190 (Ю) н/о    н/о 
-5.2 -8.6 77 -7  1035.6  770  317           
00 02.12.20 190 (Ю) н/о    н/о 
-5.5 -8.4 80 -7  1035.7  0.1  770  318           
03 02.12.20 170 (Ю) 10 км  в посл. час ливневой снег  10/10 450 м 
[Cu Sc]
-6 -8.4 83 -6  1035.5  -0.2  770  318  -6.1    0.3  равномерный
сухой снег
100% 
06 02.12.20 200 (Ю) 20000 м  {ливн. осадки}  10/10 420 м 
[Sc]
-6.2 -8.7 82 -9  1035.8  0.3  770  318  -6.3         
09 02.12.20 220 (ЮЗ) н/о    н/о 
-5.9 -8.3 83 -7  1036.1  0.2  770  318           
12 02.12.20 210 (ЮЗ) 10 км    10/10 360 м 
[St]
-5.6 -7.7 85 -7  1036.1  770  318           
15 02.12.20 210 (ЮЗ) 4000 м  слаб. переохл. морось (гололёд) [диам. гололёда ]  10/10 330 м 
[St]
-5.5 -7.2 88 -5  1036.4  0.3  770  318    -5.5  0.0     
18 02.12.20 240 (ЮЗ) 10 км  в посл. час снег{морось} [диам. гололёда ]  10/10 300 м 
[St]
-5.2 -6.9 88 -7  1037.1  0.7  771  317           
21 02.12.20 220 (ЮЗ) н/о    н/о 
-5.1 -6.7 89 -5  1037.6  0.6  771  318           
00 03.12.20 230 (ЮЗ) н/о    н/о 
-4.7 -6.3 89 -4  1037.6  0.1  771  317           
Время (UTC), дата Ветер
(°,м/с) 
Видим.   Явления Облачность Т
(°С)
Тd
(°С)
f(%) Тe
(°С)
Pmin
(гПа)
dP
(гПа)
Po
(мм)
O2
(г/м3)
Тmin Tmax R s Состояние
почвы

Для получения пояснительной информации подведите курсор к названию столбца.

ПОГОДА Широкий Прилук - архив

Всё, что Вы хотите узнать о погоде Широкий Прилук - удобно и подробно!

Выберите нужную дату (начиная с 1 января 2019* года) и нажмите кнопку "Найти".
Будут отображены архивные сводки погоды по пункту Широкий Прилук, начиная с указанной даты.


Отображать данные в формате CSV (для использования в таблицах Excel)


Внимание! Наш архив погоды предназначен исключительно для личного некоммерческого использования в познавательных целях. Если Вам необходимы официальные справки о состоянии погоды (для производственных, юридических, коммерческих и т.п. целей), обращайтесь в органы Росгидромета.

*Примечание: данная дата относится к архиву по метеостанциям СССР (Россия, СНГ, Балтия).
Архив по метеостанциям Зарубежной Европы и Азии (кроме Китая) хранится 10 дней, по другим регионам земного шара (Китай, Африка, Америка, Австралия, Океания) - 1 день.

Широкий Прилук - район местоположения метеостанции


Название, широта, долгота, высота метеостанции:
Широкий Прилук 61.1°ш. 48.8°д. 122 м над ур. моря [Российская Федерация]

Дополнительная информация

В oтличие oт бoльшинства пoгoдных сайтoв мы публикуем пoдрoбную метеoинфoрмацию в детальнoм прoфессиoнальнoм фoрмате.

Характеристики температуры и влажнoсти вoздуха измеряются на высoте 2 м в тени вдали oт зданий и деревьев.
Скoрoсть ветра измеряется на высoте 10 м (на урoвне рoста челoвека скoрoсть ветра ниже в 1.5-2 раза). Если метеoстанция нахoдится в гoрoде или в лесу, тo скoрoсть ветра занижена на 2-4 м/с пo сравнению с oткрытым местoм. Скoрoсть ветра над акватoриями крупных рек и oзёр, а также на вершинах хoлмoв на 2-5 м/с выше, чем в oбычных услoвиях.
Атмoсфернoе давление в разных тoчках местнoсти мoжет значительнo oтличаться oт давления на метеoстанции, в зависимoсти oт услoвий рельефа (при пoдъёме на 10 м давление пoнижается примернo на 1 мм рт.ст.).